Location: ??
(35.4032°N, 139.3073°E)
Time: 10:51:21
(UTC+00:00)

Cosmos 1933 Rocket - Pass Details

Date: 13 April 2024
Orbit: 602 x 628 km, 82.5° (Epoch: 21 May)

Event Time Altitude Azimuth Distance (km) Brightness Sun altitude
Rises 19:19:26 0° 356° (N) 2,883 7.2 -11.1°
Reaches altitude 10° 19:21:41 10° 358° (N) 1,970 6.4 -10.6°
Maximum altitude 19:26:02 70° 82° (E) 648 3.9 -9.8°
Drops below altitude 10° 19:30:19 10° 167° (SSE) 1,944 6.1 -9.0°
Sets 19:32:31 0° 169° (S) 2,840 6.9 -8.6°
